User: anonymous   Login
Location: Unspecified
(0.0000°N, 0.0000°E)
Time: 07:35:10
(UTC+00:00)
Language:

APRIZESAT 3 - Orbit

View from above orbital plane
View from above orbital plane
View from above satellite
View from above satellite

Ground track
Ground track

The orbit data is extracted from the following two-line orbital elements,

1 35686U 09041F   14351.84352602  .00002024  00000-0  22764-3 0  7042
2 35686 098.1722 302.7887 0076497 099.2531 289.9102 14.85776456291642
Epoch (UTC): 17 December 2014 20:14:40
Eccentricity: 0.0076497
inclination: 98.1722°
perigee height: 557 km
apogee height: 664 km
right ascension of ascending node: 302.7887°
argument of perigee: 99.2531°
revolutions per day: 14.85776456
mean anomaly at epoch: 289.9102°
orbit number at epoch: 29164

The dashed part of the orbit path shows where the satellite is in the earth's shadow,  

DLR